Location: Losili
(4.4086°N, 32.7049°E)
Time: 16:18:43
(UTC+00:00)

Kakehashi - Pass Details

Date: 18 September 2019
Orbit: 1053 x 17705 km, 30.2° (Epoch: 13 October)

Event Time Altitude Azimuth Distance (km) Brightness Sun altitude
Rises 17:32:14 0° 302° (WNW) 9,305 9.5 -27.0°
Reaches altitude 10° 17:40:37 10° 304° (NW) 6,321 8.4 -29.0°
Maximum altitude 17:54:11 73° 29° (NNE) 1,441 4.1 -32.4°
Enters shadow 17:54:27 73° 47° (NE) 1,421 4.0 -32.5°
